[[{"header":{"parameterUnit":"m.s-1","parameterCategory":1,"la1":30.2992,"la2":30.254,"lo1":-89.0895,"lo2":-89.0443,"dy":0.0025,"dx":0.0025,"nx":19,"ny":19,"refTime":"2026-05-05T21:00:00:Z","depth":0,"parameterNumber":2,"parameterNumberName":"U-component_of_WINDS"},"data":[0,0,0,-2.4712,-2.4712,-2.4739,-2.4739,-2.4781,-2.4781,0,0,0,0,0,0,0,0,0,0,0,-2.4709,-2.4709,-2.4712,-2.4712,-2.4739,-2.4739,-2.4781,-2.4781,0,0,0,0,0,0,0,0,0,0,0,-2.4708,-2.4709,-2.471,-2.4712,-2.4739,-2.4739,-2.478,-2.4758,0,0,0,0,0,0,0,0,0,0,-2.4731,-2.4733,-2.4709,-2.471,-2.4713,-2.4739,-2.4739,-2.4756,-2.4759,-2.4772,0,-2.4785,0,-2.4784,-2.4784,-2.4785,0,0,0,-2.4709,-2.4731,-2.4733,-2.471,-2.4713,-2.4739,-2.4726,-2.4758,-2.4761,-2.4776,-2.4786,-2.4787,-2.4785,-2.4785,-2.4785,-2.4872,-2.4872,0,0,-2.4707,-2.4716,-2.4731,-2.4735,-2.4732,-2.4725,-2.4727,-2.476,-2.4771,-2.4786,-2.4788,-2.4785,-2.4785,-2.4785,-2.4871,-2.4872,0,0,0,-2.4706,-2.4715,-2.4717,-2.4734,-2.4738,-2.4726,-2.4728,-2.4769,-2.4769,-2.4788,-2.4786,-2.4785,-2.4786,-2.4871,-2.4871,-2.4906,0,0,0,-2.4704,-2.4714,-2.4716,-2.4722,-2.4738,-2.4754,-2.4737,-2.4767,-2.477,-2.4786,-2.4785,-2.4786,-2.487,-2.4871,-2.4904,-2.4921,0,0,0,-2.4705,-2.4714,-2.472,-2.4722,-2.4734,-2.4753,-2.4755,-2.4767,-2.4769,-2.4785,-2.4787,-2.4869,-2.4871,-2.4902,-2.4918,-2.4945,0,0,0,-2.4709,-2.4752,-2.472,-2.4767,-2.4734,-2.4776,-2.4755,-2.4785,-2.4803,-2.4786,-2.487,-2.4871,-2.4901,-2.4915,-2.4943,-2.4967,-2.4979,0,0,-2.4767,-2.4759,-2.4786,-2.4759,-2.4808,-2.4771,-2.4825,-2.4833,-2.4828,-2.4857,-2.4859,-2.4905,-2.4917,-2.4944,-2.5047,-2.5056,0,0,0,-2.4807,-2.4826,-2.4838,-2.4855,-2.4862,-2.487,-2.4869,-2.4872,-2.4897,-2.4845,-2.4923,-2.493,-2.4946,-2.4957,-2.4965,-2.4977,-2.4878,-2.4878,-2.4877,-2.4901,-2.4891,-2.4935,-2.4928,-2.4945,-2.4944,-2.4956,-2.496,-2.4946,-2.4965,-2.4972,-2.5036,-2.5049,-2.5055,-2.5068,-2.4987,-2.4987,-2.4987,-2.4987,-2.4985,-2.5009,-2.4989,-2.5023,-2.5013,-2.5042,-2.5043,-2.5031,-2.5057,-2.5029,-2.5042,-2.501,-2.5066,-2.5076,-2.499,-2.4989,-2.4989,-2.4989,-2.4989,-2.5043,-2.5053,-2.5056,-2.5079,-2.5099,-2.5091,-2.5116,-2.5106,-2.5097,-2.511,-2.5116,-2.5115,-2.5111,-2.5114,-2.5114,-2.5115,-2.5115,-2.5115,-2.5115,-2.5101,-2.5104,-2.5125,-2.5137,-2.5146,-2.5158,-2.5158,-2.5167,-2.5174,-2.5165,-2.5165,-2.5147,-2.5074,-2.5054,-2.5118,-2.5118,-2.5117,-2.5117,-2.5117,-2.5184,-2.5164,-2.5197,-2.5207,-2.5219,-2.5239,-2.5226,-2.5246,-2.5252,-2.5264,-2.5245,-2.5194,-2.5184,-2.5177,-2.5161,-2.5248,-2.5248,-2.5248,-2.5248,-2.5231,-2.5226,-2.5258,-2.5273,-2.5287,-2.528,-2.5317,-2.5318,-2.5316,-2.5319,-2.5306,-2.5284,-2.5278,-2.5272,-2.5263,-2.5248,-2.5355,-2.5355,-2.5355,-2.5281,-2.5277,-2.531,-2.5308,-2.5317,-2.5325,-2.536,-2.5378,-2.5372,-2.536,-2.5321,-2.5316,-2.5281,-2.5271,-2.5255,-2.5242,-2.5213,0,0]},{"header":{"parameterUnit":"m.s-1","parameterCategory":1,"la1":30.2992,"la2":30.254,"lo1":-89.0895,"lo2":-89.0443,"dy":0.0025,"dx":0.0025,"nx":19,"ny":19,"refTime":"2026-05-05T21:00:00:Z","depth":0,"parameterNumber":3,"parameterNumberName":"V-component_of_WINDS"},"data":[0,0,0,5.7343,5.7345,5.7417,5.7417,5.75,5.7501,0,0,0,0,0,0,0,0,0,0,0,5.7319,5.7319,5.7343,5.7345,5.7417,5.7417,5.75,5.7501,0,0,0,0,0,0,0,0,0,0,0,5.7318,5.7319,5.732,5.7345,5.7417,5.7417,5.75,5.7448,0,0,0,0,0,0,0,0,0,0,5.738,5.7354,5.7319,5.732,5.7346,5.7416,5.7417,5.7446,5.7452,5.7465,0,5.7477,0,5.7491,5.7506,5.7507,0,0,0,5.7347,5.7349,5.7373,5.732,5.7346,5.7416,5.7385,5.7449,5.7456,5.7472,5.7479,5.7482,5.7492,5.7507,5.7507,5.7585,5.7585,0,0,5.7343,5.7329,5.7368,5.7376,5.7367,5.7382,5.7387,5.7453,5.7458,5.7479,5.7484,5.7494,5.7507,5.7508,5.7585,5.7585,0,0,0,5.733,5.7326,5.7348,5.7373,5.7387,5.7384,5.739,5.7455,5.7464,5.7485,5.7495,5.7508,5.7509,5.7585,5.7585,5.7588,0,0,0,5.7328,5.7319,5.7346,5.7338,5.7385,5.7422,5.739,5.7459,5.7467,5.7494,5.7508,5.751,5.7584,5.7585,5.7587,5.7591,0,0,0,5.7315,5.7317,5.7327,5.7337,5.7368,5.7421,5.7434,5.7461,5.7473,5.7507,5.751,5.7584,5.7585,5.7587,5.759,5.761,0,0,0,5.7296,5.7325,5.7327,5.7362,5.7367,5.7423,5.7433,5.7475,5.7504,5.7508,5.7584,5.7585,5.7586,5.7589,5.7609,5.7625,5.763,0,0,5.7324,5.7328,5.735,5.7354,5.7407,5.7413,5.7466,5.7504,5.7518,5.7562,5.7564,5.7588,5.759,5.761,5.7661,5.7665,0,0,0,5.7354,5.737,5.7387,5.7417,5.7449,5.7478,5.751,5.7525,5.7563,5.7538,5.76,5.7601,5.7614,5.7622,5.7625,5.7637,5.7588,5.7588,5.7588,5.7372,5.7393,5.7432,5.7463,5.7491,5.7526,5.7551,5.7577,5.7585,5.76,5.7613,5.7642,5.7651,5.7654,5.7666,5.7622,5.7622,5.7622,5.7622,5.7416,5.7443,5.746,5.7504,5.7525,5.7561,5.7597,5.7603,5.764,5.7633,5.7644,5.7635,5.7658,5.767,5.7622,5.7622,5.7622,5.7622,5.7622,5.7431,5.7448,5.7468,5.7516,5.7551,5.7579,5.7616,5.7633,5.7648,5.766,5.7677,5.7677,5.768,5.7667,5.7667,5.7667,5.7667,5.7667,5.7667,5.7438,5.7462,5.7492,5.7533,5.7556,5.7589,5.7628,5.765,5.768,5.7689,5.7689,5.7698,5.7656,5.7646,5.7669,5.7669,5.7669,5.7668,5.7668,5.7476,5.7472,5.7518,5.7542,5.7594,5.7628,5.7651,5.7697,5.7718,5.7736,5.7744,5.771,5.7713,5.771,5.7702,5.7738,5.7738,5.7738,5.7738,5.7489,5.7495,5.7549,5.7587,5.7625,5.7653,5.7705,5.7737,5.7767,5.7782,5.7779,5.777,5.7766,5.7772,5.7768,5.7761,5.7811,5.7811,5.7811,5.7515,5.7525,5.7567,5.7601,5.7644,5.768,5.7731,5.7773,5.7806,5.7814,5.7795,5.7791,5.7776,5.777,5.7776,5.7769,5.7756,0,0]}]]